Simultaneous Nadir Overpasses (SNOs) Predictions

Prediction of SNOs between GOES-15 and METOP-B Satellite Orbit:

Table of predicted SNOs for the next 14.0 days since TLE Epoch: 8/26/2022
Index Date Time (GOES-15) GOES-15 Lat,Lon METOP-B Lat,Lon Distance(km) Time Diff (sec)
1 08/27/2022 17:49:43 -0.14,-128.02 -0.85,-124.75 372.46 80
2 08/29/2022 06:06:03 0.17,-127.93 -0.12,-129.36 162.62 80
3 08/30/2022 05:48:03 0.15,-127.91 0.97,-124.36 405.49 80
4 08/31/2022 18:04:14 -0.19,-127.96 0.01,-128.92 109.01 80
5 09/01/2022 17:46:14 -0.16,-127.95 -1.07,-123.92 459.15 80
6 09/03/2022 06:02:33 0.19,-127.84 0.05,-128.51 76.55 80
7 09/04/2022 05:44:33 0.17,-127.81 1.14,-123.51 490.48 80
8 09/05/2022 18:00:44 -0.20,-127.85 -0.17,-128.08 26.23 80
9 09/08/2022 06:01:43 0.21,-127.71 0.24,-127.67 4.99 80
